Wind_Speed
23 21 24 23 20 20 20 17 15 13 12 11 12 12 13 15 16 16 16 17 18 17 18 17 17 17 17 6 7 15 14 17 12 10 5 5 7 6 3 6 8 7 9 8 8 8 6
22 20 21 21 17 18 16 13 12 9 9 10 11 13 14 15 16 17 18 19 18 18 16 16 17 16 15 6 12 14 15 16 8 5 4 4 4 3 8 12 5 10 8 7 5 4 6
20 18 19 17 14 14 11 10 7 6 7 10 11 13 15 16 18 20 21 20 18 15 15 17 16 15 8 10 12 16 13 13 12 8 4 8 5 7 9 7 8 9 6 4 6 6 4
19 17 16 13 11 9 7 6 3 5 8 11 13 15 18 20 21 22 22 19 16 14 14 14 13 13 4 5 9 15 12 9 7 7 8 9 11 9 8 7 7 7 8 11 6 5 6
16 15 12 10 8 6 4 3 5 8 10 13 17 18 20 23 25 24 21 17 15 14 13 13 12 10 3 4 6 12 11 8 9 9 9 9 9 6 7 7 8 9 12 3 3 6 4
15 13 11 9 7 6 5 8 9 11 14 18 21 23 25 26 26 24 20 17 16 15 15 12 10 5 5 6 9 11 11 12 9 10 7 5 3 4 5 9 11 6 4 5 5 3 5
14 13 12 10 9 9 9 11 14 14 18 22 24 25 26 27 26 23 21 19 17 17 14 7 9 5 6 8 9 11 13 13 10 7 6 5 7 1 2 3 3 0 3 4 4 5 3
15 14 13 12 12 12 13 13 15 17 19 22 24 25 26 27 25 22 22 13 16 15 10 10 9 10 10 14 6 8 13 5 7 6 6 4 3 2 1 1 1 2 4 2 5 4 2
16 15 13 13 15 14 15 14 15 18 21 23 23 24 26 25 22 21 19 20 17 18 9 10 11 6 10 10 8 10 11 6 5 6 5 1 5 4 2 2 3 4 3 4 7 9 11
17 16 14 14 15 16 17 17 17 18 20 21 22 23 25 23 19 20 19 20 19 16 7 5 3 4 7 10 3 8 9 9 4 6 7 4 5 2 1 2 4 7 4 9 9 8 10
18 17 15 15 15 17 18 19 20 20 20 21 22 23 24 24 21 21 20 22 19 10 4 6 3 6 9 4 8 4 8 5 6 7 5 3 3 1 2 3 5 6 11 8 7 8 10
20 18 15 15 16 17 19 19 20 20 20 21 23 24 24 22 23 22 20 21 14 1 3 6 5 8 8 7 6 8 6 7 9 5 5 5 3 0 2 6 4 5 7 7 4 5 7
21 19 16 15 15 16 17 19 20 20 21 22 23 23 22 22 23 22 19 19 6 4 7 7 9 8 7 7 9 8 6 5 4 5 3 4 1 2 3 5 5 8 6 6 3 5 2
21 19 16 14 14 14 16 18 19 21 22 23 23 23 23 21 22 21 18 11 7 3 8 10 12 12 6 8 6 6 7 6 4 3 3 4 6 2 6 2 3 5 4 3 4 3 5
22 20 17 14 14 15 16 17 18 20 22 22 22 22 23 22 21 21 17 11 3 7 9 14 14 8 7 6 6 5 8 5 4 4 2 1 2 1 4 4 4 5 2 1 2 2 3
23 21 18 15 14 15 16 16 17 20 22 22 22 21 22 22 20 21 10 10 5 12 13 14 8 8 7 7 5 6 4 4 3 5 6 1 2 2 4 5 5 2 2 4 1 3 4
24 22 19 16 14 15 17 16 16 19 21 21 21 15 20 20 21 17 10 7 10 15 17 11 7 7 8 7 7 5 4 5 4 2 4 3 1 1 4 1 4 5 3 4 5 3 4
25 23 21 17 14 14 17 17 16 17 20 22 20 9 21 23 16 13 9 8 14 18 17 12 8 8 8 8 6 4 6 5 4 2 1 4 1 2 2 5 4 3 4 4 4 5 6
27 24 22 19 15 14 15 19 18 17 18 21 11 12 22 25 13 18 15 14 15 16 12 9 11 9 9 9 4 7 6 5 3 1 1 1 2 4 3 0 3 3 5 6 6 7 13
28 25 23 20 17 15 14 17 20 19 18 19 10 11 20 24 14 14 15 15 18 18 15 13 11 10 10 7 5 8 6 5 4 3 2 2 2 2 7 10 12 12 13 13 14 15 15
29 26 24 22 19 16 15 15 18 19 19 17 12 11 18 20 15 13 13 14 14 16 15 12 11 8 10 7 8 7 6 5 6 5 4 2 2 5 9 13 14 15 16 16 18 21 21
30 28 26 23 21 19 16 15 16 18 18 19 13 13 18 14 16 15 15 13 14 13 11 13 9 12 9 7 5 8 6 4 4 5 3 6 4 11 15 9 12 17 20 20 18 13 15
33 29 26 24 22 20 19 17 17 17 16 17 16 15 17 15 18 15 15 14 14 13 14 9 12 11 13 9 10 9 10 9 7 4 6 7 6 8 7 15 23 8 3 2 7 10 12
35 31 28 25 23 21 19 18 18 17 16 14 15 14 16 17 19 14 15 13 14 12 12 14 11 12 11 9 9 9 9 8 9 11 11 10 8 7 8 10 3 4 10 16 13 11 10
36 33 29 26 24 21 20 19 18 16 15 15 15 14 15 15 20 18 15 16 16 14 11 14 12 10 9 9 8 6 6 7 10 12 10 9 8 5 3 7 18 9 1 4 12 14 15
35 33 30 26 24 22 21 19 18 17 16 15 15 16 16 14 18 18 17 16 17 17 14 13 13 11 10 9 7 5 4 4 3 4 8 9 9 7 7 4 4 6 9 12 10 19 7
37 34 31 28 24 22 20 19 19 18 17 15 14 14 16 17 16 18 17 18 15 14 12 15 13 13 12 11 10 8 6 7 4 5 8 9 10 12 11 9 10 13 15 17 10 11 21
37 35 33 30 26 24 21 19 19 19 18 17 15 14 14 15 14 19 19 17 16 16 15 16 15 16 15 13 10 10 9 8 8 7 10 8 7 8 8 7 8 4 11 15 21 26 23
38 35 34 32 28 26 23 21 20 19 18 17 16 15 15 15 11 15 15 16 17 19 16 16 16 11 12 11 13 9 9 10 11 7 8 10 13 10 9 10 15 25 23 25 34 31 35
Wind_Direction
261 265 270 274 278 279 278 279 273 262 251 238 225 211 203 196 193 190 182 176 171 172 171 167 175 160 156 110 166 153 140 155 142 149 134 149 152 148 155 151 146 149 142 142 147 155 153
260 262 269 271 276 275 277 274 264 249 231 214 202 192 187 182 177 174 168 165 167 169 165 174 170 167 145 194 168 160 153 146 133 150 177 165 169 107 127 137 154 155 143 145 158 172 170
256 262 265 269 269 272 270 263 253 226 211 195 186 176 172 167 166 162 157 160 164 160 170 173 171 170 127 225 186 174 163 165 166 146 172 180 156 138 159 161 150 162 151 147 185 199 218
251 255 259 260 262 259 254 246 221 185 184 166 164 163 158 157 155 151 153 152 153 159 164 167 168 164 214 212 186 184 177 187 173 161 155 149 162 168 166 193 165 174 200 199 180 191 241
241 245 246 244 237 236 219 175 162 161 158 153 151 154 152 151 148 148 147 146 146 153 156 161 163 137 256 181 172 192 189 178 169 154 150 147 145 171 181 172 194 203 228 207 206 200 226
228 230 226 214 204 199 172 143 144 140 146 150 148 148 146 146 146 146 143 138 139 142 145 153 162 135 206 196 161 161 158 155 149 148 155 153 160 159 189 218 267 156 227 217 237 196 244
213 214 208 185 186 175 159 144 140 144 146 143 141 143 147 148 147 145 142 131 130 135 128 160 173 183 172 134 139 148 148 141 148 171 201 204 226 175 186 296 337 133 254 255 238 256 300
201 202 195 173 180 170 161 150 147 149 147 145 148 150 151 150 151 150 140 125 162 154 144 166 168 157 140 129 123 158 149 142 184 204 206 213 181 190 251 328 315 292 281 245 270 239 275
194 193 187 177 176 171 165 160 155 152 151 154 152 153 155 156 155 152 151 149 165 134 127 135 142 128 142 126 161 176 167 168 186 208 209 288 169 207 147 337 330 290 295 284 290 278 273
190 187 184 180 180 175 171 169 165 162 160 156 155 156 157 159 157 152 151 146 148 120 130 141 142 176 127 123 146 172 183 177 163 152 147 154 197 153 286 308 343 296 270 302 292 277 257
188 183 182 183 186 182 179 175 174 171 164 160 159 163 164 169 165 165 159 154 151 122 182 162 184 149 165 142 148 151 160 157 171 186 144 195 155 43 303 283 317 291 290 290 278 262 267
186 181 180 185 187 189 185 180 180 177 173 169 166 164 163 168 167 161 164 163 165 4 174 163 152 139 105 130 162 141 141 156 139 117 120 151 206 155 295 310 306 311 318 286 272 241 241
185 179 178 182 187 189 188 186 186 182 181 177 173 168 167 170 173 169 171 166 176 244 174 173 162 144 143 116 118 103 123 121 184 176 184 141 109 317 342 350 331 340 307 268 218 196 269
186 177 176 179 184 184 185 186 188 184 185 182 177 173 173 174 172 171 169 164 206 178 168 166 155 149 154 124 107 125 122 84 95 104 157 211 175 46 346 37 299 344 359 2 298 335 327
182 176 173 176 180 179 178 180 183 182 185 182 179 176 177 172 174 172 159 194 228 174 184 157 153 160 160 165 153 117 111 91 101 122 133 226 122 333 3 18 14 320 14 297 277 297 257
179 175 172 172 172 173 175 173 177 179 180 177 177 178 180 177 175 175 172 202 214 180 163 166 173 178 174 163 149 149 153 140 91 106 105 169 184 233 306 346 336 343 285 298 313 294 286
178 176 173 170 166 169 172 168 166 171 175 173 170 169 181 180 177 173 196 208 213 189 158 171 191 170 172 158 160 151 163 159 133 95 75 51 71 292 9 335 322 320 317 315 299 296 295
179 177 175 170 165 167 170 168 162 163 168 170 169 173 179 170 165 181 198 202 184 177 184 183 155 157 172 159 155 151 162 180 166 92 85 355 84 295 290 294 290 297 289 284 280 296 262
180 180 177 173 169 166 169 171 167 163 165 163 157 199 178 174 196 188 196 199 177 177 181 193 200 188 180 162 155 146 168 181 198 148 163 357 340 319 247 340 1 307 280 262 267 271 259
183 181 180 178 175 167 169 173 174 173 171 175 158 163 178 185 181 198 192 187 193 195 198 202 202 191 178 170 165 172 187 209 215 230 256 321 285 274 302 308 304 288 280 275 267 262 269
187 185 185 183 180 175 169 171 177 180 182 182 173 176 185 201 193 183 185 191 190 202 205 195 194 187 178 157 149 162 180 229 235 240 262 302 275 288 289 301 300 289 282 277 266 267 262
190 187 188 188 186 184 176 173 176 182 186 192 191 191 197 195 192 181 193 190 184 193 187 195 181 173 173 192 185 188 191 199 236 263 245 291 283 307 316 316 314 299 289 276 270 276 265
192 192 191 192 192 191 188 184 183 183 188 196 201 205 204 209 197 190 196 188 187 194 200 177 175 165 168 165 198 210 216 227 238 240 260 276 287 312 290 318 316 309 102 282 288 280 277
195 195 194 195 196 198 198 196 196 197 197 197 200 202 202 206 200 196 196 195 185 186 201 174 161 192 208 214 218 226 241 257 266 264 264 271 277 293 285 322 303 322 282 292 282 286 279
198 199 199 200 202 203 204 204 204 206 206 206 204 202 200 203 199 200 199 178 204 202 201 209 213 213 215 215 228 249 257 264 264 267 253 256 266 276 265 285 292 318 176 260 307 296 299
201 202 202 202 204 206 210 210 210 209 209 210 208 208 205 204 203 203 203 202 205 209 210 209 215 220 220 222 224 222 220 214 209 269 253 254 248 235 264 259 268 305 314 292 303 297 241
205 206 206 207 208 209 209 212 215 213 213 212 210 210 211 212 210 204 211 204 204 211 215 219 222 223 227 230 232 228 231 211 229 230 271 246 250 242 247 251 269 292 266 279 290 288 297
208 210 212 212 212 213 214 214 215 216 215 213 214 212 214 213 211 212 218 220 221 220 227 226 222 228 231 233 234 232 226 233 251 253 281 273 257 253 230 244 272 289 288 292 292 299 284
209 211 213 215 216 216 215 217 217 218 217 217 217 216 217 216 220 216 217 220 225 222 218 226 223 237 222 228 226 220 229 263 274 266 258 256 245 259 232 263 288 302 291 291 287 285 298
Height
3109 3108 3108 3107 3104 3103 3101 3100 3098 3097 3097 3098 3099 3100 3103 3105 3107 3111 3114 3118 3121 3124 3127 3130 3133 3136 3140 3144 3145 3144 3146 3147 3149 3150 3152 3155 3155 3155 3154 3153 3156 3158 3161 3161 3161 3162 3163
3105 3104 3104 3103 3101 3100 3098 3096 3095 3095 3095 3096 3097 3099 3102 3104 3107 3111 3114 3118 3122 3126 3128 3131 3134 3138 3142 3147 3143 3145 3146 3148 3150 3153 3153 3154 3153 3153 3155 3157 3159 3161 3162 3163 3163 3164 3162
3101 3100 3101 3100 3098 3097 3095 3095 3093 3093 3094 3095 3097 3100 3102 3105 3108 3112 3116 3120 3124 3127 3130 3133 3136 3140 3142 3145 3144 3145 3147 3148 3149 3150 3153 3151 3152 3156 3159 3159 3160 3161 3163 3162 3163 3163 3163
3097 3097 3098 3097 3096 3095 3094 3093 3092 3092 3093 3095 3097 3100 3102 3106 3110 3114 3119 3123 3126 3129 3132 3135 3138 3141 3145 3142 3143 3146 3147 3149 3150 3150 3151 3152 3153 3157 3159 3159 3160 3161 3163 3161 3163 3161 3161
3093 3095 3096 3094 3094 3093 3093 3092 3092 3093 3094 3096 3098 3101 3105 3108 3112 3117 3122 3125 3128 3131 3133 3137 3141 3143 3146 3143 3145 3145 3147 3150 3150 3152 3153 3154 3156 3158 3158 3159 3160 3160 3155 3158 3160 3161 3161
3091 3093 3094 3093 3092 3093 3093 3093 3094 3094 3096 3098 3100 3104 3107 3111 3116 3120 3124 3127 3130 3133 3136 3140 3142 3147 3144 3145 3144 3146 3148 3149 3152 3153 3155 3156 3157 3157 3157 3157 3154 3153 3156 3159 3159 3160 3160
3089 3091 3092 3091 3092 3093 3093 3095 3096 3098 3099 3101 3103 3106 3110 3114 3118 3122 3126 3129 3135 3138 3139 3143 3144 3143 3143 3144 3145 3147 3149 3151 3153 3155 3157 3157 3157 3156 3157 3157 3156 3157 3158 3157 3158 3157 3156
3088 3090 3091 3090 3093 3094 3095 3096 3099 3101 3102 3103 3106 3110 3113 3117 3121 3124 3128 3131 3136 3139 3140 3140 3142 3142 3143 3144 3149 3148 3150 3154 3154 3156 3156 3157 3156 3157 3157 3157 3158 3158 3157 3156 3156 3155 3156
3087 3088 3089 3090 3093 3094 3096 3098 3100 3103 3105 3107 3109 3112 3116 3120 3123 3126 3129 3132 3136 3138 3143 3143 3143 3144 3144 3147 3147 3147 3149 3151 3154 3155 3155 3155 3156 3155 3157 3158 3157 3157 3156 3156 3157 3156 3155
3085 3087 3088 3090 3092 3094 3097 3099 3101 3104 3107 3109 3111 3114 3118 3122 3127 3128 3132 3134 3137 3140 3145 3147 3147 3147 3147 3146 3148 3147 3148 3151 3153 3155 3155 3156 3154 3156 3157 3157 3156 3156 3153 3154 3154 3154 3149
3084 3085 3087 3089 3091 3095 3097 3099 3102 3105 3107 3110 3113 3116 3119 3123 3125 3130 3133 3135 3139 3141 3142 3147 3146 3145 3145 3148 3148 3148 3149 3151 3154 3153 3155 3156 3156 3157 3157 3156 3154 3156 3152 3152 3151 3150 3149
3083 3084 3086 3089 3091 3094 3096 3099 3102 3104 3108 3111 3114 3117 3120 3124 3127 3130 3133 3136 3140 3145 3143 3145 3146 3148 3148 3147 3147 3148 3149 3150 3151 3154 3155 3155 3154 3156 3155 3154 3153 3152 3152 3151 3149 3149 3147
3082 3083 3085 3088 3090 3093 3095 3098 3101 3104 3108 3111 3114 3117 3120 3123 3127 3130 3134 3138 3145 3142 3144 3145 3146 3147 3149 3149 3148 3151 3151 3152 3154 3156 3155 3156 3156 3155 3153 3154 3153 3153 3151 3147 3147 3146 3143
3080 3082 3084 3087 3090 3092 3094 3097 3100 3103 3107 3111 3114 3117 3120 3124 3127 3131 3134 3141 3142 3141 3143 3143 3145 3148 3150 3150 3150 3151 3153 3153 3151 3153 3154 3154 3156 3155 3154 3153 3154 3153 3153 3152 3148 3144 3143
3078 3081 3084 3087 3089 3092 3094 3097 3100 3103 3107 3110 3114 3117 3120 3124 3127 3131 3136 3140 3139 3141 3141 3143 3146 3148 3149 3149 3151 3151 3152 3152 3151 3151 3155 3154 3155 3153 3153 3153 3154 3153 3154 3153 3152 3151 3150
3077 3080 3084 3087 3089 3092 3095 3097 3100 3103 3107 3110 3113 3117 3120 3124 3127 3131 3136 3137 3137 3137 3140 3144 3145 3146 3147 3149 3150 3151 3152 3151 3152 3151 3152 3154 3155 3154 3153 3152 3152 3153 3153 3153 3152 3152 3147
3076 3080 3083 3087 3089 3092 3095 3097 3100 3103 3107 3110 3114 3118 3120 3123 3127 3131 3135 3136 3134 3135 3139 3144 3145 3145 3147 3147 3149 3150 3152 3152 3151 3152 3152 3153 3154 3156 3154 3154 3154 3154 3153 3154 3153 3153 3149
3075 3080 3083 3087 3089 3092 3095 3098 3101 3104 3107 3111 3114 3120 3119 3123 3129 3131 3133 3133 3133 3136 3138 3140 3143 3144 3146 3147 3148 3149 3151 3151 3150 3151 3153 3152 3153 3154 3154 3152 3151 3153 3153 3153 3153 3152 3151
3074 3079 3083 3086 3089 3092 3095 3098 3101 3104 3108 3111 3117 3116 3119 3123 3127 3128 3130 3131 3134 3137 3138 3140 3141 3142 3144 3146 3148 3148 3149 3149 3150 3151 3152 3152 3153 3153 3150 3152 3151 3152 3152 3152 3151 3150 3149
3072 3078 3082 3086 3090 3092 3095 3098 3101 3105 3108 3112 3116 3117 3120 3122 3125 3129 3130 3131 3133 3134 3137 3138 3140 3142 3143 3145 3146 3147 3147 3149 3149 3150 3150 3151 3153 3153 3154 3153 3152 3150 3149 3149 3148 3148 3145
3072 3077 3081 3085 3089 3093 3096 3098 3101 3104 3108 3112 3114 3117 3118 3120 3124 3127 3130 3132 3133 3134 3136 3138 3140 3142 3143 3144 3146 3147 3148 3148 3148 3148 3149 3150 3151 3152 3150 3149 3148 3146 3144 3143 3142 3142 3141
3070 3075 3080 3084 3088 3092 3096 3098 3101 3104 3107 3111 3113 3115 3117 3119 3122 3126 3126 3130 3133 3132 3135 3137 3140 3141 3142 3143 3146 3146 3147 3148 3149 3147 3148 3148 3148 3147 3145 3145 3144 3141 3138 3137 3136 3136 3135
3067 3073 3078 3083 3087 3091 3095 3098 3101 3104 3106 3109 3111 3114 3117 3118 3121 3124 3126 3129 3132 3131 3134 3136 3138 3139 3140 3141 3142 3142 3143 3144 3145 3147 3146 3147 3146 3145 3143 3142 3137 3134 3133 3134 3134 3133 3132
3065 3071 3076 3081 3086 3090 3093 3097 3100 3103 3105 3108 3110 3113 3115 3117 3120 3123 3124 3127 3129 3131 3132 3134 3137 3137 3139 3139 3141 3141 3142 3142 3143 3143 3144 3143 3144 3143 3141 3140 3138 3134 3132 3131 3130 3129 3128
3063 3069 3074 3079 3084 3088 3092 3095 3098 3101 3104 3107 3109 3112 3113 3115 3118 3120 3122 3125 3127 3129 3131 3132 3134 3136 3137 3139 3140 3140 3140 3141 3140 3140 3140 3141 3141 3141 3141 3139 3135 3129 3127 3128 3125 3124 3124
3061 3067 3072 3077 3082 3086 3090 3094 3097 3100 3102 3105 3107 3110 3112 3114 3116 3119 3121 3123 3125 3127 3129 3130 3132 3133 3135 3136 3138 3138 3139 3139 3140 3138 3137 3138 3138 3140 3138 3138 3133 3128 3127 3121 3121 3120 3117
3058 3064 3070 3074 3079 3084 3087 3091 3095 3098 3100 3103 3106 3108 3110 3112 3114 3117 3119 3121 3123 3126 3127 3128 3129 3131 3132 3133 3135 3136 3136 3136 3137 3136 3134 3135 3134 3134 3133 3132 3127 3124 3121 3120 3122 3121 3112
3055 3061 3067 3071 3076 3081 3085 3089 3092 3095 3099 3101 3104 3106 3108 3110 3112 3114 3117 3119 3121 3123 3124 3125 3128 3128 3129 3131 3132 3132 3132 3132 3132 3133 3131 3132 3131 3129 3129 3128 3124 3120 3119 3117 3114 3109 3104
3051 3057 3063 3068 3073 3078 3082 3086 3089 3093 3096 3099 3102 3104 3106 3108 3111 3112 3114 3116 3118 3118 3121 3122 3124 3125 3126 3126 3127 3127 3128 3127 3128 3129 3129 3129 3127 3127 3125 3122 3121 3119 3113 3109 3105 3103 3099